Probability
6 8 10 10 9 8 5 3 1 0 0 0 0 0 0 0 0 0 0 0 0 1 2 2 1 1 0 1 2 1 1 0 0 0 0 0 0 0 0 0 0 0 0
7 8 11 12 11 9 6 3 1 0 0 1 1 0 0 0 0 0 0 0 0 2 3 3 3 2 1 1 2 2 1 1 0 0 0 0 0 0 0 0 0 0 0
7 9 11 13 12 10 7 4 2 1 1 2 2 1 0 0 0 0 1 1 1 2 3 3 3 4 3 3 2 2 2 1 0 0 0 0 0 0 0 0 0 0 0
7 8 10 12 12 9 6 4 2 2 3 4 3 1 0 0 1 1 2 2 3 3 3 3 3 3 4 3 2 2 2 2 0 0 0 0 0 0 0 0 0 0 0
6 6 8 11 11 8 4 2 2 3 4 4 3 2 1 1 2 2 3 4 4 4 4 4 3 3 3 3 1 1 2 2 0 0 0 0 0 0 0 0 0 0 0
5 6 8 9 10 7 3 1 1 3 4 3 3 2 2 2 2 3 4 5 6 5 5 4 3 3 2 1 1 1 2 2 1 0 0 0 0 0 0 0 0 0 0
5 6 8 8 8 7 4 2 2 3 4 3 2 1 2 3 3 3 5 7 7 6 5 3 3 2 1 0 0 0 1 1 1 0 0 0 0 0 0 0 0 0 0
6 7 8 8 7 6 5 3 3 4 4 3 2 1 2 4 3 4 6 7 7 6 5 3 2 1 0 0 0 0 0 1 1 0 0 0 0 0 0 0 0 0 0
6 7 8 9 7 5 4 3 3 4 3 3 3 3 3 4 4 5 6 6 6 5 5 3 1 0 0 0 0 0 0 0 1 0 0 0 0 0 0 0 0 0 0
6 8 9 8 6 5 3 1 1 2 2 2 3 4 5 6 6 6 6 6 4 4 4 3 1 0 0 0 0 1 0 0 0 0 0 0 1 0 0 0 0 0 0
5 7 7 5 4 4 2 1 0 0 1 2 3 4 5 6 6 6 6 5 4 3 4 3 1 0 0 0 0 0 0 0 0 0 0 0 0 0 0 0 0 0 0
5 5 4 4 3 3 3 1 0 0 1 2 3 4 5 6 7 6 6 5 3 3 3 3 2 0 0 0 0 0 0 0 0 0 0 0 0 0 0 0 0 0 0
4 4 3 3 3 3 3 2 1 0 0 1 1 2 4 7 7 6 6 4 2 2 3 4 3 2 1 0 0 0 0 0 0 0 0 0 0 0 0 0 0 0 0
5 4 3 3 3 3 3 2 1 0 0 0 1 1 3 5 6 6 6 4 3 3 3 4 4 3 1 0 0 0 0 0 0 0 0 0 0 0 0 0 0 0 0
6 5 4 3 3 3 1 1 0 0 0 0 1 1 2 3 5 6 6 5 3 3 3 3 4 3 1 0 0 0 0 0 0 0 0 0 0 0 0 0 0 0 0
5 5 3 3 3 2 1 0 0 0 0 0 0 1 1 2 4 6 6 4 3 3 3 3 3 3 1 0 0 0 0 0 0 0 0 0 0 0 0 0 0 0 0
2 3 2 2 2 1 0 0 0 0 0 0 0 0 0 1 3 6 5 3 3 4 3 3 3 3 2 1 0 0 0 0 0 0 0 0 0 0 0 0 0 0 0
2 2 1 1 1 0 0 1 0 0 0 0 0 0 0 0 2 4 3 3 4 4 4 3 3 3 2 1 0 0 0 0 0 0 0 0 0 0 0 0 0 0 0
2 2 1 0 0 0 0 0 0 0 0 0 0 0 0 0 0 1 1 2 3 3 3 3 3 3 2 1 0 0 0 0 0 0 0 0 0 0 0 0 0 0 0
2 2 1 0 0 0 0 0 0 0 0 0 0 0 0 0 0 0 0 1 1 2 3 3 3 3 2 1 0 0 0 0 0 0 0 0 0 0 0 0 0 0 0
2 2 2 1 0 0 0 0 0 0 0 0 0 0 0 0 0 0 0 0 0 1 2 3 3 3 2 1 0 0 0 0 0 0 0 0 0 0 0 0 0 0 0
3 3 3 2 1 1 0 0 0 0 0 0 0 0 0 0 0 0 0 0 0 0 1 1 2 2 2 1 0 0 0 0 0 0 0 0 0 0 0 0 0 0 0
2 2 2 2 2 1 0 0 0 0 0 0 0 0 0 0 0 0 0 0 0 0 0 0 1 1 1 0 0 0 0 0 0 0 0 0 0 0 0 0 0 0 0
1 1 1 1 1 1 0 0 0 0 0 0 0 0 0 0 0 0 0 0 0 0 0 0 0 0 0 0 0 0 0 0 0 0 0 0 0 0 0 0 0 0 0
0 0 0 0 0 0 0 0 0 0 0 0 0 0 0 0 0 0 0 0 0 0 0 0 0 0 0 0 0 0 0 0 0 0 0 0 0 0 0 0 0 0 0
0 0 0 0 0 0 0 0 0 0 0 0 0 0 0 0 0 0 0 0 0 0 0 0 0 0 0 0 0 0 0 0 0 0 0 0 0 0 0 0 0 0 0
Wind_Speed
6 6 5 4 3 3 3 4 4 3 3 2 2 2 2 2 2 2 4 4 4 4 3 2 3 3 3 2 3 3 3 2 2 2 2 3 3 4 3 3 3 4 4
4 6 5 4 3 3 3 4 3 3 3 2 1 1 1 1 1 2 3 3 3 3 3 2 2 3 2 2 3 2 2 1 2 1 1 1 2 3 2 2 3 3 3
3 5 6 4 3 3 3 3 3 3 3 3 2 2 2 1 1 1 1 2 3 3 3 3 2 2 1 1 1 2 2 1 1 2 2 1 0 1 2 2 3 3 3
4 5 5 5 4 3 2 3 3 3 3 3 2 2 1 1 0 1 1 1 2 2 2 2 2 2 2 2 1 2 1 1 1 1 2 1 1 1 1 2 2 3 3
4 5 5 5 4 3 3 2 3 3 3 3 3 2 1 1 1 1 2 1 2 2 2 2 2 2 1 2 2 2 2 1 1 1 1 2 2 1 1 0 1 2 2
4 4 5 4 3 3 3 2 3 3 2 2 2 2 2 1 2 2 1 1 1 2 2 2 2 2 2 2 2 1 2 2 1 1 1 1 1 1 1 1 0 1 1
4 4 4 4 4 3 3 3 3 2 2 2 2 1 1 1 1 1 1 1 1 1 1 2 2 2 2 2 2 2 1 2 1 1 1 1 1 1 1 2 1 1 1
4 4 4 4 3 3 3 3 3 2 2 2 1 1 1 1 1 1 1 1 1 1 1 2 2 2 2 2 1 1 1 2 2 2 2 1 1 2 1 1 1 1 1
4 4 4 4 3 3 2 2 2 2 1 1 1 1 1 1 1 1 1 1 1 1 2 2 2 1 1 1 1 1 1 1 1 1 1 1 1 1 1 1 1 1 0
4 4 4 3 3 3 3 2 2 2 2 1 1 1 2 2 1 1 1 1 1 1 2 2 1 1 1 1 1 1 1 1 0 0 1 1 1 1 1 1 1 1 1
4 4 4 3 3 3 3 2 2 1 1 1 1 2 2 1 1 1 1 1 1 1 1 1 1 1 1 1 1 1 1 1 0 0 0 0 1 1 1 1 1 1 1
4 4 4 4 3 2 2 2 1 1 1 1 1 2 1 1 1 1 1 1 1 1 1 1 0 0 1 1 0 0 0 0 0 1 0 0 1 1 1 1 1 1 0
4 4 3 3 3 2 2 2 1 1 2 1 1 2 2 1 1 1 1 1 1 1 1 1 1 0 0 1 1 1 1 0 0 1 0 0 1 1 0 0 0 1 1
4 3 3 2 2 2 2 2 2 1 1 1 1 2 1 1 1 1 0 0 0 1 0 1 1 0 0 0 1 1 1 0 0 0 1 0 1 1 0 0 1 1 0
3 2 2 2 1 1 2 2 1 1 1 1 1 1 1 1 1 0 0 0 0 1 1 1 1 1 1 0 1 1 2 1 1 1 1 0 1 0 0 0 0 0 0
2 1 2 1 1 1 2 1 1 1 1 1 1 1 1 1 1 0 0 0 1 1 1 1 1 1 1 1 2 2 2 2 2 2 1 2 1 0 1 1 1 1 1
1 1 1 1 1 1 1 1 1 1 1 1 1 1 0 0 1 1 1 1 1 1 2 2 2 2 2 3 3 4 3 2 2 2 1 2 1 1 1 2 2 2 3
1 1 1 1 1 1 1 1 1 1 1 1 1 1 1 1 1 1 1 1 1 1 2 2 2 2 3 4 4 5 3 3 3 2 2 1 1 2 1 1 1 2 2
2 1 1 1 1 1 1 1 1 0 1 1 1 1 1 1 1 1 2 2 2 2 2 2 2 2 3 4 4 3 2 2 3 3 2 2 2 3 2 1 2 2 3
3 2 2 2 1 1 1 1 0 1 1 0 1 1 1 1 1 1 1 2 2 2 2 2 2 2 2 4 4 4 2 2 3 2 2 3 2 3 3 3 2 3 3
3 3 2 2 1 1 1 0 1 1 1 1 2 2 1 1 1 1 1 1 2 2 2 2 2 2 2 3 4 3 2 2 3 3 2 2 2 3 4 4 3 4 4
3 3 2 2 1 1 1 1 1 1 2 2 1 1 2 2 1 1 1 1 1 2 2 2 3 1 1 2 3 4 4 3 3 3 2 2 4 4 5 4 5 6 5
3 2 2 1 1 1 1 1 1 1 1 1 1 1 1 1 1 1 1 1 1 1 2 2 2 2 1 1 3 4 5 5 3 3 4 4 5 5 4 6 7 5 3
2 2 2 1 1 1 2 1 1 1 1 1 1 1 1 2 2 1 1 1 1 1 2 2 2 2 1 1 1 2 3 4 4 3 4 5 5 4 5 5 4 3 3
2 2 1 1 1 1 1 1 1 1 1 1 1 1 1 1 1 1 1 1 0 1 2 2 2 2 2 3 4 3 2 2 3 3 2 2 2 2 2 2 3 3 2
2 1 1 1 1 1 1 1 1 1 1 1 1 1 1 1 1 1 2 2 2 2 2 2 2 2 3 5 5 5 5 5 5 3 2 3 3 3 3 3 3 3 3
Wind_Direction
156 148 141 135 120 109 107 99 100 91 87 85 73 59 43 32 42 43 43 30 25 32 48 44 48 50 53 34 41 49 51 41 44 68 43 25 47 62 56 53 60 66 64
153 142 137 133 133 126 119 115 111 106 95 79 81 94 78 49 50 40 35 30 32 25 30 48 61 70 67 46 45 54 39 23 28 57 74 34 10 17 47 65 65 71 64
146 146 143 136 130 134 131 130 126 121 111 105 84 70 71 50 41 55 34 18 36 31 26 40 64 67 79 83 57 67 59 25 356 45 67 82 88 327 10 50 65 72 64
151 146 144 143 140 136 119 122 128 123 121 116 111 115 123 119 78 85 67 16 39 47 39 27 57 73 69 78 48 66 58 55 2 351 18 45 101 112 19 10 41 69 70
141 141 144 140 137 131 124 124 126 115 115 122 130 121 84 90 78 80 71 39 42 37 44 28 36 64 80 85 57 50 45 62 50 15 359 15 16 35 105 70 2 26 50
122 125 130 129 126 120 128 135 127 118 117 109 111 110 98 90 73 56 52 32 40 25 30 48 32 45 62 65 58 61 52 42 46 29 32 55 44 340 55 104 116 50 14
115 123 120 120 123 126 130 128 113 103 103 106 99 105 124 127 118 97 74 49 43 25 4 39 47 48 55 60 55 43 47 40 49 51 37 40 32 13 50 92 86 49 333
116 122 122 124 124 120 126 126 119 124 119 119 113 93 93 107 113 118 94 72 61 34 38 53 52 52 60 57 61 50 39 43 31 35 55 49 20 28 53 91 97 56 352
127 128 125 126 118 116 108 104 119 131 127 129 128 122 104 85 92 89 80 78 69 58 56 58 49 40 63 72 75 66 48 54 31 16 27 42 47 37 40 70 118 140 178
131 129 120 117 116 110 101 101 102 127 141 129 127 114 115 113 96 83 83 90 79 66 70 59 39 24 33 57 71 67 46 72 83 88 40 14 27 49 46 44 23 52 129
128 124 120 113 104 98 94 91 102 116 130 115 117 118 116 121 119 101 90 85 89 93 93 87 47 18 15 22 81 78 63 46 355 52 99 8 38 54 39 36 38 31 78
120 114 109 109 107 102 96 86 67 80 89 113 109 108 96 100 118 116 114 106 102 119 121 125 117 7 349 1 65 119 40 86 326 317 359 348 66 60 42 33 32 8 104
118 109 105 109 112 110 107 94 65 58 64 76 103 98 99 103 105 109 116 127 139 138 149 160 150 0 337 350 317 229 211 143 307 318 287 227 113 124 139 113 39 327 336
126 122 122 121 123 130 111 94 77 65 61 66 104 118 122 127 124 104 90 143 164 145 214 208 178 212 237 305 315 337 355 65 77 11 323 334 122 156 196 220 224 236 224
123 133 135 130 133 118 101 101 104 102 89 70 75 119 144 126 113 101 246 180 194 246 246 245 230 247 234 278 8 343 332 312 259 243 236 97 53 84 139 308 277 303 223
132 144 144 133 135 128 127 129 152 171 146 107 78 70 70 91 128 174 262 242 267 259 250 241 234 251 271 290 309 314 288 280 258 245 225 203 189 1 9 320 305 309 262
105 114 161 159 171 178 154 158 157 130 128 115 93 72 49 293 203 222 249 248 245 253 269 259 232 223 225 243 267 283 284 278 268 250 238 251 222 176 216 269 282 287 292
69 102 112 121 138 121 103 120 107 104 135 109 85 47 335 301 278 258 266 273 270 252 256 261 259 245 243 249 257 274 272 278 272 248 229 218 207 227 214 249 277 270 274
70 82 93 87 90 97 85 101 106 130 77 63 30 349 330 314 300 283 289 287 280 266 259 251 248 240 248 252 250 255 261 267 276 261 236 229 209 214 220 238 267 280 280
59 52 71 81 80 74 67 90 76 78 67 18 337 335 336 312 288 278 280 294 291 276 274 266 260 246 235 246 245 242 242 256 270 274 253 241 238 217 218 217 236 258 267
62 65 72 74 69 68 65 70 45 21 19 28 18 0 359 352 333 330 315 310 307 300 284 275 272 262 257 244 238 239 254 263 271 273 267 250 243 239 249 248 239 259 273
62 64 74 72 63 57 58 48 33 19 29 31 6 352 354 339 348 345 324 316 305 291 290 289 284 282 269 255 240 241 262 293 280 275 277 269 258 260 265 266 263 271 280
59 63 71 68 63 57 52 54 46 47 25 357 341 346 344 340 343 341 324 315 319 311 302 298 294 300 302 283 262 250 264 278 280 279 288 295 276 266 260 258 259 261 251
63 62 57 52 36 45 43 40 42 51 29 339 335 346 349 342 339 338 329 337 339 323 309 306 300 299 312 334 319 287 275 274 278 284 286 286 271 258 259 262 255 237 230
66 63 47 18 23 41 33 35 27 11 341 325 328 335 336 334 338 358 353 339 299 281 296 300 304 311 309 308 310 298 280 272 267 285 282 270 261 249 253 252 252 244 240
80 73 60 34 28 30 18 26 23 355 334 320 319 323 325 328 333 344 346 349 311 314 311 306 309 313 308 309 308 303 295 289 280 271 252 252 244 241 244 247 250 247 243